Current weather by "City, St" or "zip code"  
 

Current Conditions: Maxwell Air Force Base / Montgomery, AL

Fair


70.0 F

Last Updated on Oct 23 2020, 10:56 pm CDT
Humidity: %
Wind Speed: N 0.0 mph
Barometer 30.03 in
Dewpoint: F
Visibility: 9.00 mi
Precip: --
Heat Index: NA
Wind Chill: NA
Current conditions at:

Maxwell Air Force Base / Montgomery, AL (KMXF)

Lat: 32.38333 Lon: 86.36667

Local Radar Image active severe weather and emergency alerts image image weather storm and storm spotter reports image weather observation monitoring service image
Local
Radar
Active
Alerts
Storm Reports Obs
Monitoring

Sign-up For Email & Text Message Weather Alert Notification Services



Advertise Here

Observation History for Maxwell Air Force Base / Montgomery, AL


Time Wind
(mph)
Vis
(mi)
Weather Precip (in) Temperature (F) Relative
Humidity
Wind
Chill
(F)
Heat
Index
(F)
Pressure
Air Dwpt altimeter
(in)
sea level
(mb)
Rmks
10:56 pm CDT N 0.0 9.00 Fair -- 70.0 % NA NA 30.03 1017.1
9:56 pm CDT N 0.0 9.00 Fair -- 72.0 % NA NA 30.02 1016.7
8:56 pm CDT N 0.0 10.00 Fair -- 72.0 % NA NA 30.01 1016.4
7:56 pm CDT N 0.0 10.00 Fair -- 73.0 % NA NA 30.00 1016.0
6:56 pm CDT N 0.0 10.00 Fair -- 73.0 % NA NA 30.00 1016.1
5:56 pm CDT E 5.8 9.00 Fair -- 79.0 79.3 100% NA NA 29.99 1015.7
4:56 pm CDT SE 6.9 9.00 Fair -- 82.0 82.4 100% NA 95 29.98 1015.4
3:56 pm CDT E 8.1 9.00 Fair -- 84.0 69.8 62% NA 88 29.98 1015.3
1:56 pm CDT E 6.9 8.00 Mostly Cloudy -- 82.0 % NA NA 30.03 1017.0
12:56 pm CDT E 5.8 9.00 A Few Clouds -- 81.0 69.8 70% NA 85 30.06 1018.1
11:56 am CDT E 5.8 8.00 Mostly Cloudy -- 77.0 69.8 79% NA NA 30.08 1018.7
10:56 am CDT E 3.5 8.00 Mostly Cloudy -- 77.0 68.0 74% NA NA 30.10 1019.4
9:56 am CDT SE 6.9 10.00 Mostly Cloudy -- 75.0 68.4 81% NA NA 30.10 1019.4
8:56 am CDT E 5.8 8.00 Overcast -- 72.0 68.0 88% NA NA 30.09 1019.1
6:56 am CDT NE 4.6 8.00 A Few Clouds -- 68.0 % NA NA 30.07 1018.4
5:56 am CDT NE 3.5 9.00 Fair -- 68.0 % NA NA 30.07 1018.4
4:56 am CDT NE 3.5 10.00 Fair -- 68.0 % NA NA 30.06 1018.1
3:56 am CDT NE 4.6 10.00 Fair -- 68.0 % NA NA 30.05 1017.7
2:56 am CDT E 3.5 10.00 Fair -- 70.0 % NA NA 30.06 1018.1
1:56 am CDT NE 4.6 10.00 Fair -- 70.0 % NA NA 30.06 1018.1
12:56 am CDT NE 4.6 10.00 Fair -- 72.0 % NA NA 30.06 1018.1
11:56 pm CDT E 4.6 10.00 A Few Clouds -- 72.0 % NA NA 30.07 1018.4
10:56 pm CDT E 5.8 10.00 Overcast -- 73.0 % NA NA 30.07 1018.4

Regional Weather Observation


Montgomery, Dannelly Field, AL (KMGM)

Fair
71.0 F

Alexander City, Thomas C Russell Field Airport, AL (KALX)

Fair
67.0 F

Alabaster, Shelby County Airport, AL (KEET)

Fair
67.0 F

Mac Crenshaw Memorial Airport, AL (KPRN)

Mostly Cloudy
71.0 F

Troy, Troy Municipal Airport, AL (KTOI)

Fair
71.0 F

Auburn-Opelika Airport, AL (KAUO)

Fair
71.0 F